#timestamp,LO_Frequency,Hit,StdDev 
1507910415.3,286047000.2,N
1507910435.2,286047002.3,N
1507910455.9,286047002.4,N
1507910475.7,286047000.9,N
1507910495.6,286046998.1,N
1507910515.4,286046998.6,N
1507910535.3,286046999.2,N
1507910555.1,286046998.8,N
1507910556.0,286046998.8,N
1507910575.8,286046998.2,N
1507910595.7,286046998.4,N
1507910615.5,286047000.9,N
1507910635.3,286047001.0,N
1507910655.2,286047000.7,N
1507910675.0,286047000.9,N
1507910675.9,286047000.9,N
1507910695.8,286046998.1,N
1507910715.6,286047001.1,N
1507910735.4,286046999.9,N
1507910755.3,286047000.4,N
1507910775.1,286047000.6,N
1507910795.9,286047000.8,N
1507910815.7,286046998.4,N
1507910835.5,286046999.4,N
1507910855.4,286046999.0,N
1507910875.2,286046998.3,N
1507910895.0,286046996.7,N
1507910895.9,286046996.7,N
1507910915.8,286046996.9,N
1507910935.6,286046996.8,N
1507910955.5,286046998.9,N
1507910975.3,286046996.6,N
1507910995.1,286046997.0,N
1507911015.9,286046997.5,N
1507911035.7,286046996.7,N
1507911055.5,286046996.6,N
1507911075.4,286046996.8,N
1507911095.2,286046996.6,N
1507911115.0,286046997.0,N
1507911116.0,286046997.0,N
1507911135.8,286046997.2,N
1507911155.6,286046997.3,N
1507911175.5,286046997.1,N
1507911195.3,286046997.5,N
1507911215.1,286046999.6,N
1507911235.9,286046997.5,N
1507911255.7,286046997.6,N
1507911275.6,286046996.5,N
1507911295.4,286046999.6,N
1507911315.2,286046998.9,N
1507911335.1,286046999.5,N
1507911336.0,286046999.5,N
1507911355.8,286046999.6,N
1507911375.6,286046996.5,Y
1507911395.5,286047000.9,P
1507911415.3,286046998.1,N
1507911435.2,286047002.8,N
1507911455.9,286047000.5,N
1507911475.7,286047001.6,N
1507911495.6,286047002.5,N
1507911515.4,286047000.9,N
1507911535.2,286046998.5,N
1507911555.1,286046998.1,N
1507911556.0,286046998.1,N
1507911575.8,286046999.8,N
1507911595.7,286047000.1,N
1507911615.5,286047002.8,N
1507911635.3,286047000.0,N
1507911655.2,286047001.7,N
1507911675.0,286047001.4,N
1507911675.9,286047001.4,N
1507911695.8,286047001.3,N
1507911715.6,286047001.6,N
1507911735.4,286047004.1,N
1507911755.3,286047003.7,N
1507911775.1,286047004.1,N
1507911795.8,286047003.9,N
1507911815.7,286047004.4,N
1507911835.5,286047004.2,N
1507911855.4,286047001.7,N
1507911875.2,286047001.5,N
1507911895.0,286047002.4,N
1507911895.9,286047002.4,N
1507911915.8,286047002.0,N
1507911935.6,286047002.8,N
1507911955.5,286047002.0,N
1507911975.3,286047002.2,N
1507911995.1,286047001.7,N
1507912015.9,286047003.8,N
1507912035.7,286047003.5,N
1507912055.5,286047004.4,N
1507912075.4,286047003.9,N
1507912095.2,286047004.0,N
1507912115.1,286047003.3,N
1507912116.0,286047003.3,N
1507912135.8,286047003.5,N
1507912155.6,286047003.1,N
1507912175.5,286047004.0,Y
1507912195.3,286047000.7,P
1507912215.1,286047000.1,N
1507912235.9,286047002.1,N
1507912255.7,286047002.5,N
1507912275.6,286047002.2,N
1507912295.4,286047002.4,N
1507912315.3,286047000.1,N
1507912335.1,286046999.8,N
1507912355.9,286047000.0,N
1507912375.7,286046998.1,N
1507912395.5,286047000.9,N
1507912415.4,286047001.0,N
1507912435.2,286047000.5,N
1507912455.0,286047000.5,N
1507912455.9,286047000.5,N
1507912475.8,286047002.6,N
1507912495.6,286047001.3,N
1507912515.5,286047001.3,N
1507912535.3,286047003.8,Y
1507912555.1,286047001.8,P
1507912575.9,286047002.3,P
1507912595.7,286047001.3,N
1507912615.6,286047003.8,Y
1507912635.4,286047002.0,P
1507912655.2,286047001.3,P
1507912675.1,286047002.3,P
1507912676.0,286047002.3,Y
1507912695.8,286046998.5,P
1507912715.6,286046999.5,N
1507912735.5,286046999.5,N
1507912755.3,286046996.6,N
1507912775.2,286046997.3,N
1507912795.9,286046998.5,N
1507912815.7,286046996.6,N
1507912835.6,286046996.5,N
1507912855.4,286046997.2,N
1507912875.2,286046997.8,N
1507912895.1,286046997.8,N
1507912896.0,286046997.8,N
1507912915.8,286046997.2,N
1507912935.7,286046997.4,N
1507912955.5,286046999.6,N
1507912975.3,286046998.5,N
1507912995.2,286046999.0,N
1507913015.0,286046996.9,N
1507913015.9,286046996.9,N
1507913035.8,286046999.4,N
1507913055.6,286046997.0,N
1507913075.4,286046996.7,N
1507913095.3,286046998.5,N
1507913115.1,286046998.5,N
1507913135.8,286047001.1,N
1507913155.7,286047000.9,N
1507913175.5,286047000.8,N
1507913195.4,286047001.1,N
1507913215.2,286047001.0,N
1507913235.0,286047000.9,N
1507913235.9,286047000.9,N
1507913255.8,286047000.2,N
1507913275.6,286047001.2,N
1507913295.4,286047001.2,N
1507913315.3,286046998.2,N
1507913335.1,286047001.2,N
1507913355.9,286047000.7,N
1507913375.7,286047000.7,N
1507913395.5,286047000.8,N
1507913415.4,286046998.2,N
1507913435.2,286046999.4,N
1507913455.0,286046999.6,N
1507913455.9,286046999.6,N
1507913475.8,286046997.3,N
1507913495.6,286046997.7,N
1507913515.5,286046996.6,N
1507913535.3,286046998.7,N
1507913555.1,286046996.6,N
1507913575.9,286046997.1,N
1507913595.7,286046998.5,N
1507913615.5,286047000.8,N
1507913635.4,286046998.3,N
1507913655.2,286046999.4,N
1507913675.1,286047000.8,N
1507913676.0,286047000.8,N
1507913695.8,286046999.8,N
1507913715.6,286047002.8,N
1507913735.5,286047000.1,N
1507913755.3,286047002.7,N
1507913775.1,286047002.6,N
1507913795.9,286047002.6,N
1507913815.7,286047002.5,N
1507913835.6,286047000.9,N
1507913855.4,286047000.9,N
1507913875.2,286047000.8,N
1507913895.1,286046998.2,N
1507913896.0,286046998.2,N
1507913915.8,286047000.8,N
1507913935.7,286047002.3,N
1507913955.5,286047002.6,N
1507913975.3,286047002.5,N
1507913995.2,286047000.1,N
